Preview of NWS' New Version of Forecast
This preview is not operational and should not be used for support decisions.
Latest weather observations around

Joplin, Joplin Regional Airport (KJLN)

Using International System of Units (Switch to English Units)
Date/ Time (CDT) Wind (kph) Vis. (km) Weather Sky Cond. Temp (°C) Rel. Humidity Wind Chill (°C) Heat Index (°C) Pressure Precip. (cm)
Air Dwpt 6 hour Altimeter (hPa) Sea level (hPa) 1 hr 3 hr 6 hr
Max Min
Sep 16 20:53 Calm 16.09 Clear CLR 24 21     79%   25 1017.3 1016.1      
Sep 16 19:53 Calm 16.09 Clear CLR 27 20     67%   28 1016.9 1015.8      
Sep 16 18:53 ESE 11 16.09 Clear CLR 29 19     57%   30 1017.3 1016      
Sep 16 17:53 Calm 16.09 Clear CLR 32 22     57%   36 1017.3 1016      
Sep 16 16:53 5 16.09 Mostly Clear FEW050 32 23     59%   36 1017.3 1016.1      
Sep 16 15:53 WSW 5 16.09 Clear CLR 32 22     56%   36 1017.6 1016.3      
Sep 16 14:53 Calm 16.09 Clear CLR 33 22     52%   37 1018.3 1017      
Sep 16 13:53 WSW 5 16.09 Clear CLR 32 22     56%   36 1019 1017.7      
Sep 16 12:53 W 11 14.48 Clear CLR 32 22     57%   36 1019.7 1018.4      
Sep 16 11:53 SW 13 16.09 Clear CLR 31 22     59%   35 1020.3 1019      
Sep 16 10:53 SW 13 16.09 Clear CLR 30 22     61%   33 1020.3 1019.2      
Sep 16 09:53 SSW 13 16.09 Clear CLR 28 21     65%   31 1020.7 1019.3      
Sep 16 08:53 S 8 16.09 Clear CLR 26 22     77%   28 1020.3 1019.3      
Sep 16 07:53 SSW 8 12.87 Clear CLR 22 21     91%   23 1020.3 1019.1      
Sep 16 06:53 S 8 14.48 Clear CLR 22 19     87%   22 1019.7 1018.5      
Sep 16 05:53 SSE 8 14.48 Clear CLR 22 19     84%   23 1019.3 1018.1      
Sep 16 04:53 SSE 5 16.09 Clear CLR 22 19     84%   23 1019.3 1017.9      
Sep 16 03:53 SSE 9 14.48 Clear CLR 22 20     87%   23 1019.3 1017.9      
Sep 16 02:53 SSE 8 12.87 Clear CLR 22 20     87%   23 1019.3 1018      
Sep 16 01:53 SSE 8 14.48 Clear CLR 22 20     90%   22 1019.3 1017.9      
Sep 16 00:53 SSE 5 14.48 Clear CLR 23 21     87%   23 1019 1017.7      
Sep 15 23:53 SSE 8 14.48 Clear CLR 23 21     90%   23 1019 1017.6      
Sep 15 22:53 SSE 8 12.87 Clear CLR 24 22     88%   25 1019 1017.6      
Sep 15 21:53 SSE 5 14.48 Clear CLR 24 22     85%   25 1018.6 1017.6      
Sep 15 20:53 SE 5 16.09 Clear CLR 25 22     82%   26 1018.3 1017      
Sep 15 19:53 Calm 14.48 Clear CLR 27 21     71%   28 1017.6 1016.6      
Sep 15 18:53 S 8 16.09 Clear CLR 29 22     65%   32 1017.6 1016.5      
Sep 15 17:53 SSW 13 16.09 Clear CLR 31 21     55%   34 1018 1016.6      
Sep 15 16:53 SSW 15 16.09 Clear CLR 32 21     52%   35 1018 1016.8      
Sep 15 15:53 SW 15 16.09 Clear CLR 32 21     52%   35 1018.3 1017.1      
Sep 15 14:53 SSW 15 16.09 Clear CLR 32 22     54%   36 1019 1017.7      
Sep 15 13:53 SSW 17 16.09 Clear CLR 32 22     55%   35 1020 1018.5      
Sep 15 12:53 SW 22 16.09 Clear CLR 31 21     55%   34 1020.7 1019.3      
Sep 15 11:53 SSW 21 16.09 Clear CLR 30 21     59%   33 1020.7 1019.5      
Sep 15 10:53 SSW 22 16.09 Clear CLR 29 21     61%   32 1020.7 1019.5      
Sep 15 09:53 SSW 21 16.09 Clear CLR 28 20     63%   29 1020.7 1019.4      
Sep 15 08:53 S 18 16.09 Clear CLR 26 19     69%   26 1020.3 1019.3      
Sep 15 07:53 S 17 16.09 Clear CLR 23 19     76%   24 1020.3 1019.1      
Sep 15 06:53 S 17 16.09 Clear CLR 23 18     76%   23 1020 1018.9      
Sep 15 05:53 S 15 16.09 Clear CLR 23 18     76%   23 1019.7 1018.6      
Sep 15 04:53 S 18 16.09 Clear CLR 23 18     74%   24 1019.7 1018.3      
Sep 15 03:53 S 18 16.09 Clear CLR 23 19     76%   24 1019.7 1018.5      
Sep 15 02:53 S 15 16.09 Clear CLR 23 19     76%   24 1020 1018.8      
Sep 15 01:53 S 15 16.09 Clear CLR 23 19     79%   24 1020.3 1019.2      
Sep 15 00:53 S 11 16.09 Clear CLR 23 20     82%   24 1020.7 1019.3      
Sep 14 23:53 SSE 9 16.09 Clear CLR 23 20     82%   24 1021 1019.7      
Sep 14 22:53 SSE 8 16.09 Clear CLR 24 21     79%   25 1021 1019.7      
Sep 14 21:53 SSE 9 16.09 Clear CLR 24 21     79%   25 1020.7 1019.5      
Sep 14 20:53 S 8 16.09 Clear CLR 24 21     79%   25 1020 1018.9      
Sep 14 19:53 SSE 9 16.09 Clear CLR 26 21     72%   27 1019.7 1018.4      
Sep 14 18:53 SSE 11 16.09 Clear CLR 27 21     69%   29 1019.7 1018.4      
Sep 14 17:53 S 13 16.09 Clear CLR 29 21     59%   32 1019.7 1018.6      
Sep 14 16:53 SSW 17 16.09 Clear CLR 31 21     57%   33 1020 1018.6      
Sep 14 15:53 SSW 15 16.09 Clear CLR 29 20     57%   31 1020.3 1019.2      
Sep 14 14:53 SSW 17 16.09 Clear CLR 31 21     55%   33 1020.7 1019.6      
Sep 14 13:53 SW 21 16.09 Clear CLR 31 22     57%   34 1021.7 1020.4      
Sep 14 12:53 SSW 21 16.09 Clear CLR 31 21     57%   33 1022 1021.1      
Sep 14 11:53 SSW 18 16.09 Clear CLR 29 21     61%   31 1023 1021.9      
Sep 14 10:53 S 13 16.09 Mostly Cloudy BKN120 26 18     60%   26 1023.4 1022.5      
Sep 14 09:53 SSE 17 16.09 Clear CLR 26 16     56%   26 1023.4 1022.3      
Sep 14 08:53 SSE 15 16.09 Clear CLR 24 14     54%   24 1023.4 1022.3      
Sep 14 07:53 SSE 11 16.09 Clear CLR 21 14     63%     1023.4 1022.3      
Sep 14 06:53 SE 13 16.09 Clear CLR 21 14     66%     1023 1021.9      
Sep 14 05:53 SE 13 16.09 Clear CLR 21 16     73%     1022.7 1021.5      
Sep 14 04:53 SE 9 16.09 Clear CLR 20 16     76%     1022.4 1021.4      
Sep 14 03:53 SE 9 16.09 Clear CLR 20 16     76%     1022.4 1021.2      
Sep 14 02:53 SE 8 16.09 Partly Cloudy SCT080 20 16     76%     1022.7 1021.7      
Sep 14 01:53 ESE 9 16.09 Clear CLR 19 16     79%     1023 1022      
Sep 14 00:53 ESE 8 16.09 Clear CLR 19 16     84%     1023 1022.2      
Sep 13 23:53 ESE 8 16.09 Clear CLR 19 17     87%     1023 1022.1      
Sep 13 22:53 ESE 9 16.09 Clear CLR 21 17     81%     1023 1022.1      
Sep 13 21:53 Calm 16.09 Clear CLR 20 18     90%     1023 1022.2      
Sep 13 20:53 ESE 8 16.09 Clear   22 18     79%   22 1022.7 1021.8      
May 15 06:53 NNW 9 16.09 Clear CLR 16 16     97%     1013.2 1012.2     2
May 14 05:53 S 17 16.09 Clear CLR 21 17     81%     1014.2 1013.1      
May 13 10:53   16.09 Clear CLR 27 20     67%   28 1016.9 1015.8      
May 12 18:53 S 28 16.09 Clear CLR 27 18     58%   28 1012.9 1011.8      
May 12 08:53 S 18 16.09 Clear CLR 23 18     71%   24 1014.6 1013.5      
May 12 00:53 SSE 13 16.09 Clear CLR 21 16     73%     1012.2 1011.3      
Jun 12 01:53 S 15 16.09 Clear CLR 23 18     76%   23 1013.2 1011.9      
Jun 11 21:53 S 17 16.09 Clear CLR 26 18     62%   26 1012.5 1011.3      
Jun 11 11:53   16.09 Partly Cloudy SCT032 29 22     65%   32 1013.9 1012.6      
Jun 11 10:53   16.09 Clear CLR 28 21     65%   31 1013.6 1012.1      
Jun 10 19:53 S 24 16.09 Clear CLR 27 19     62%   29 1010.2 1008.9      
Jun 10 17:53   16.09 Clear CLR 29 20     57%   31 1009.8 1008.8      
Jun 10 11:53   16.09 Clear CLR 28 19     60%   29 1012.5 1011.3      
Jun 09 14:53 S 21 16.09 Partly Cloudy SCT055 27 16     52%   27 1012.9 1012.1      
Jun 09 00:53 SE 5 16.09 Clear CLR 16 13     83%     1013.9 1013      
Jun 08 23:53 S 5 16.09 Clear   17 13     80%     1013.9 1013.1      
Jun 08 12:53 WNW 8 16.09 Clear CLR 26 12     41%   26 1017.6 1016.8      
Jun 08 06:53 Calm 16.09 Clear CLR 13 12     90%     1018 1017.4      
Jun 07 21:53 Calm 16.09 Clear CLR 18 13     75%     1017.6 1016.7      
Jun 07 14:53 NNE 15 16.09 Clear CLR 27 11     37%   27 1018 1017      
Jun 07 11:53 E 15 16.09 Mostly Clear FEW060 26 9     35%   26 1019 1018.2      
Jun 06 11:53 N 8 16.09 Clear CLR 28 18     55%   29 1014.6 1013.4      
Jun 06 10:53 N 8 16.09 Clear CLR 26 19     65%   26 1014.6 1013.3      
Notice The following observation data may not be complete
Jun 06 04:02   3.22 Fog/Mist CLR          %              
Jun 05 19:53 Calm 16.09 Mostly Cloudy BKN075 29 21     63%   31 1010.2 1008.9